Location: Oshawa
(43.9000°N, 78.8670°W)
Time: 23:55:07
(UTC-05:00)

S-56A Canister/Altair - All Passes

Search period start: 21 December 2014 00:00
Search period end: 31 December 2014 00:00
Orbit: 634 x 2502 km, 38.9° (Epoch: 19 December)

Date Brightness Start Highest point End Pass type
(mag) Time Alt. Az. Time Alt. Az. Time Alt. Az.
21 Dec - 00:28:56 10° SSW 00:36:08 24° SSE 00:41:32 10° ESE night (unlit)
21 Dec - 02:32:36 10° WSW 02:40:05 46° SSE 02:45:17 10° E night (unlit)
21 Dec - 04:37:44 10° W 04:43:39 49° S 04:48:10 10° ESE visible
21 Dec - 06:42:51 10° WSW 06:46:38 22° SSW 06:50:07 10° SSE visible
21 Dec - 23:56:20 10° SSW 00:03:47 23° SSE 00:09:26 10° ESE night (unlit)
22 Dec - 01:59:48 10° SW 02:07:51 45° SSE 02:13:23 10° E night (unlit)
22 Dec - 04:05:05 10° W 04:11:34 52° S 04:16:18 10° ESE visible
22 Dec - 06:10:21 10° W 06:14:39 26° SSW 06:18:23 10° SSE visible
22 Dec - 23:23:44 10° SSW 23:31:24 22° SSE 23:37:16 10° ESE night (unlit)
23 Dec - 01:26:56 10° SW 01:35:35 44° SSE 01:41:29 10° E night (unlit)
23 Dec - 03:32:21 10° WSW 03:39:27 55° S 03:44:26 10° ESE visible
23 Dec - 05:37:47 10° W 05:42:39 30° SSW 05:46:40 10° SE visible
23 Dec - 22:51:12 10° S 22:58:57 21° SSE 23:05:01 10° ESE night (unlit)
24 Dec - 00:54:02 10° SW 01:03:16 43° SSE 01:09:32 10° E night (unlit)
24 Dec - 02:59:32 10° WSW 03:07:17 57° S 03:12:35 10° ESE visible
24 Dec - 05:05:10 10° W 05:10:38 35° SSW 05:14:55 10° SE visible
24 Dec - 22:18:42 10° S 22:26:28 20° SE 22:32:40 10° ESE visible
25 Dec - 00:21:05 10° SW 00:30:53 42° SSE 00:37:34 10° E night (unlit)
25 Dec - 02:26:37 10° WSW 02:35:03 58° S 02:40:42 10° E night (unlit)
25 Dec - 04:32:28 10° W 04:38:36 40° SSW 04:43:10 10° SE visible
25 Dec - 06:39:43 10° WSW 06:41:08 11° SW 06:42:29 10° SSW visible
25 Dec - 21:46:19 10° S 21:53:57 19° SE 22:00:12 10° ESE visible
25 Dec - 23:48:08 10° SW 23:58:27 41° SSE 00:05:33 10° E night (unlit)
26 Dec - 01:53:38 10° WSW 02:02:47 59° S 02:08:49 10° E night (unlit)
26 Dec - 03:59:41 10° W 04:06:31 45° SSW 04:11:23 10° SE visible
26 Dec - 06:06:19 10° WSW 06:09:09 14° SW 06:11:42 10° S visible
26 Dec - 21:14:03 10° S 21:21:23 17° SE 21:27:34 10° ESE visible
26 Dec - 23:15:11 10° SW 23:25:57 39° SSE 23:33:29 10° E night (unlit)
27 Dec - 01:20:34 10° WSW 01:30:27 59° S 01:36:55 10° E night (unlit)
27 Dec - 03:26:49 10° W 03:34:23 50° SSW 03:39:36 10° ESE visible
27 Dec - 05:33:17 10° WSW 05:37:11 18° SW 05:40:29 10° S visible
27 Dec - 20:41:57 10° S 20:48:48 16° SE 20:54:45 10° ESE visible
27 Dec - 22:42:15 10° SW 22:53:24 38° SSE 23:01:22 10° E visible
28 Dec - 00:47:28 10° WSW 00:58:03 59° S 01:04:59 10° E night (unlit)
28 Dec - 02:53:52 10° W 03:02:12 54° SSW 03:07:47 10° ESE visible
28 Dec - 05:00:19 10° W 05:05:11 22° SW 05:09:05 10° SSE visible
28 Dec - 20:10:06 10° SSE 20:16:12 14° SE 20:21:39 10° ESE visible
28 Dec - 22:09:21 10° SSW 22:20:48 36° SSE 22:29:11 10° E visible
29 Dec - 00:14:20 10° WSW 00:25:35 58° S 00:33:01 10° E night (unlit)
29 Dec - 02:20:51 10° W 02:29:57 58° S 02:35:57 10° ESE night (unlit)
29 Dec - 04:27:22 10° W 04:33:10 27° SSW 04:37:35 10° SSE visible
29 Dec - 19:38:40 10° SSE 19:43:35 13° SE 19:48:09 10° ESE visible
29 Dec - 21:36:31 10° SSW 21:48:09 35° SSE 21:56:55 10° E visible
29 Dec - 23:41:10 10° WSW 23:53:04 57° SSE 00:01:00 10° E night (unlit)
30 Dec - 01:47:45 10° W 01:57:38 61° S 02:04:05 10° ESE night (unlit)
30 Dec - 03:54:23 10° W 04:01:07 32° SSW 04:06:00 10° SSE visible
30 Dec - 19:08:07 10° SE 19:10:58 11° SE 19:13:43 10° ESE visible
30 Dec - 21:03:45 10° SSW 21:15:27 33° SSE 21:24:33 10° E visible
30 Dec - 23:08:00 10° WSW 23:20:28 56° SSE 23:28:56 10° E visible
